{"data":{"norad_id":67337,"epoch":"2026-09-19T14:06:48.023712Z","epoch_age_seconds":154045,"freshness":"FRESH","line1":"1 67337U 26003D   26262.58805583  .00010139  00000+0  37734-3 0  9997","line2":"2 67337  43.0017 212.4263 0000891 295.3626  64.7134 15.27591333 38470","mean_motion":15.27591333,"eccentricity":8.91e-5,"inclination_deg":43.0017,"raan_deg":212.4263,"arg_perigee_deg":295.3626,"mean_anomaly_deg":64.7134,"bstar":0.00037734,"rev_number":3847,"period_min":94.266049360991,"perigee_km":482.40383251287,"apogee_km":483.62648982799,"semimajor_km":6861.1521611704,"source":"CELESTRAK","updated_at":"2026-09-20T09:00:43.511032Z"}}